Weather History for DeLand, FL

Change the Weather History Date:

Sunday, September 22, 2013

  Actual Average Record
Temperature  
Mean Temperature - -  
Max Temperature - 89 °F 86 °F (2014)
Min Temperature - 70 °F 69 °F (2014)
Moisture  
Dew Point -    
Average Humidity    
Maximum Humidity    
Minimum Humidity    
Precipitation  
Precipitation 0.47 in - - ()
Sea Level Pressure  
Sea Level Pressure 29.82 in    
Wind  
Wind Speed 5 mph (SSW)    
Max Wind Speed 14 mph    
Max Gust Speed 21 mph    
Visibility 9 miles    
Events      
Averages and records for this station are not official NWS values.
T = Trace of Precipitation, MM = Missing Value Source: NWS Daily Summary

Daily Weather History Graph

Daily Weather History Graph

Search for Another Location

Airport:

Trip Planner

Search our weather history database for the weather conditions in past years. The results will help you decide how hot, cold, wet, or windy it might be!

Date:

Astronomy

Sep. 22, 2013 Rise Set
Actual Time 7:13 AM EDT 7:21 PM EDT
Civil Twilight 6:50 AM EDT 7:45 PM EDT
Nautical Twilight 6:22 AM EDT 8:12 PM EDT
Astronomical Twilight 5:54 AM EDT 8:40 PM EDT
Moon 9:29 PM EDT (9/22) 10:14 AM EDT (9/22)
Length of Visible Light 12h 55m
Length of Day
12h 07m
Waning Gibbous, 89% of the Moon is Illuminated
Sep 22
Waning Gibbous
Sep 26
Last Quarter
Oct 4
New
Oct 11
First Quarter
Oct 18
Full

Hourly Weather History & Observations

Time (EDT) Temp. Dew Point Humidity Pressure Visibility Wind Dir Wind Speed Gust Speed Precip Events Conditions
12:15 AM - - N/A% 29.82 in 9.0 mi SSE 4.6 mph - N/A   Clear
12:35 AM - - N/A% 29.82 in 10.0 mi South 4.6 mph - N/A   Clear
12:55 AM - - N/A% 29.82 in 10.0 mi SSE 3.5 mph - N/A   Clear
1:15 AM - - N/A% 29.82 in 9.0 mi South 3.5 mph - N/A   Clear
1:35 AM - - N/A% 29.82 in 10.0 mi South 6.9 mph - N/A   Clear
1:55 AM - - N/A% 29.81 in 10.0 mi South 6.9 mph - N/A   Clear
2:15 AM - - N/A% 29.81 in 9.0 mi South 6.9 mph - N/A   Clear
2:35 AM - - N/A% 29.81 in 10.0 mi South 6.9 mph - N/A   Clear
2:55 AM - - N/A% 29.81 in 9.0 mi South 6.9 mph - N/A   Clear
3:15 AM - - N/A% 29.80 in 10.0 mi South 5.8 mph - N/A   Clear
3:35 AM - - N/A% 29.79 in 10.0 mi South 5.8 mph - N/A   Clear
3:55 AM - - N/A% 29.79 in 10.0 mi South 5.8 mph - N/A   Clear
4:15 AM - - N/A% 29.78 in 9.0 mi South 5.8 mph - N/A   Clear
4:35 AM - - N/A% 29.78 in 10.0 mi South 5.8 mph - N/A   Clear
4:55 AM - - N/A% 29.79 in 9.0 mi South 4.6 mph - N/A   Clear
5:15 AM - - N/A% 29.79 in 9.0 mi South 6.9 mph - N/A   Clear
5:35 AM - - N/A% 29.79 in 10.0 mi South 4.6 mph - N/A   Clear
5:55 AM - - N/A% 29.79 in 10.0 mi South 3.5 mph - N/A   Clear
6:15 AM - - N/A% 29.79 in 10.0 mi Calm Calm - N/A   Clear
6:35 AM - - N/A% 29.80 in 9.0 mi South 5.8 mph - N/A   Clear
6:55 AM - - N/A% 29.80 in 9.0 mi South 3.5 mph - N/A   Clear
7:15 AM - - N/A% 29.80 in 9.0 mi SSW 3.5 mph - N/A   Clear
7:35 AM - - N/A% 29.80 in 9.0 mi South 3.5 mph - N/A   Clear
7:55 AM - - N/A% 29.80 in 10.0 mi South 4.6 mph - N/A   Clear
8:15 AM - - N/A% 29.80 in 9.0 mi SSW 5.8 mph - N/A   Clear
8:35 AM - - N/A% 29.80 in 9.0 mi SSW 6.9 mph - N/A   Clear
8:55 AM - - N/A% 29.81 in 7.0 mi SSW 8.1 mph - N/A   Clear
9:15 AM - - N/A% 29.81 in 8.0 mi SW 5.8 mph - N/A   Clear
9:35 AM - - N/A% 29.82 in 10.0 mi SW 4.6 mph - N/A   Clear
9:55 AM - - N/A% 29.82 in 10.0 mi SW 6.9 mph - N/A   Clear
10:15 AM - - N/A% 29.82 in 9.0 mi SSW 8.1 mph - N/A   Clear
10:35 AM - - N/A% 29.82 in 10.0 mi SSW 10.4 mph - N/A   Clear
10:55 AM - - N/A% 29.81 in 10.0 mi SSW 12.7 mph - N/A   Clear
11:15 AM - - N/A% 29.81 in 9.0 mi SSW 13.8 mph - N/A   Clear
11:35 AM - - N/A% 29.81 in 9.0 mi SW 10.4 mph 17.3 mph N/A   Clear
11:55 AM - - N/A% 29.81 in 9.0 mi SW 11.5 mph 20.7 mph N/A   Clear
12:15 PM - - N/A% 29.81 in 10.0 mi SW 11.5 mph - N/A   Partly Cloudy
12:35 PM - - N/A% 29.81 in 10.0 mi WSW 10.4 mph - N/A   Scattered Clouds
12:55 PM - - N/A% 29.80 in 9.0 mi SW 10.4 mph 17.3 mph N/A   Scattered Clouds
1:15 PM - - N/A% 29.79 in 9.0 mi SSW 9.2 mph - N/A   Mostly Cloudy
1:35 PM - - N/A% 29.78 in 9.0 mi WSW 9.2 mph - N/A   Scattered Clouds
1:55 PM - - N/A% 29.78 in 10.0 mi SW 8.1 mph - N/A   Partly Cloudy
2:15 PM - - N/A% 29.78 in 10.0 mi WSW 6.9 mph - N/A   Scattered Clouds
2:35 PM - - N/A% 29.80 in 2.0 mi NNW 6.9 mph - 0.08 in   Unknown
2:55 PM - - N/A% 29.80 in 5.0 mi SE 5.8 mph - 0.42 in   Mostly Cloudy
3:15 PM - - N/A% 29.80 in 7.0 mi Calm Calm - 0.01 in   Mostly Cloudy
3:35 PM - - N/A% 29.79 in 10.0 mi West 4.6 mph - 0.01 in   Partly Cloudy
3:55 PM - - N/A% 29.80 in 10.0 mi WSW 5.8 mph - 0.01 in   Clear
4:15 PM - - N/A% 29.81 in 9.0 mi WNW 5.8 mph - N/A   Clear
4:35 PM - - N/A% 29.81 in 10.0 mi West 4.6 mph - N/A   Partly Cloudy
4:55 PM - - N/A% 29.82 in 10.0 mi West 4.6 mph - N/A   Partly Cloudy
5:15 PM - - N/A% 29.82 in 10.0 mi West 3.5 mph - N/A   Clear
5:35 PM - - N/A% 29.82 in 8.0 mi Calm Calm - N/A   Clear
5:55 PM - - N/A% 29.82 in 8.0 mi SW 3.5 mph - 0.01 in   Partly Cloudy
6:15 PM - - N/A% 29.82 in 4.0 mi South 3.5 mph - 0.02 in   Scattered Clouds
6:35 PM - - N/A% 29.83 in 8.0 mi South 3.5 mph - 0.03 in   Scattered Clouds
6:55 PM - - N/A% 29.83 in 9.0 mi SSW 4.6 mph - 0.03 in   Mostly Cloudy
7:15 PM - - N/A% 29.83 in 5.0 mi Calm Calm - N/A   Scattered Clouds
7:35 PM - - N/A% 29.83 in 8.0 mi Calm Calm - N/A   Partly Cloudy
7:55 PM - - N/A% 29.83 in 9.0 mi Calm Calm - N/A   Clear
8:15 PM - - N/A% 29.84 in 8.0 mi Calm Calm - N/A   Clear
8:35 PM - - N/A% 29.84 in 8.0 mi Calm Calm - N/A   Clear
8:55 PM - - N/A% 29.86 in 10.0 mi SSW 3.5 mph - N/A   Clear
9:15 PM - - N/A% 29.86 in 8.0 mi Calm Calm - N/A   Clear
9:35 PM - - N/A% 29.86 in 8.0 mi Calm Calm - N/A   Clear
9:55 PM - - N/A% 29.87 in 7.0 mi Calm Calm - N/A   Clear
10:15 PM - - N/A% 29.87 in 7.0 mi Calm Calm - N/A   Clear
10:35 PM - - N/A% 29.87 in 6.0 mi Calm Calm - N/A   Clear
10:55 PM - - N/A% 29.87 in 5.0 mi SSE 3.5 mph - N/A   Clear
11:15 PM - - N/A% 29.87 in 6.0 mi Calm Calm - N/A   Clear
11:35 PM - - N/A% 29.88 in 7.0 mi Calm Calm - N/A   Clear
11:55 PM - - N/A% 29.88 in 6.0 mi Calm Calm - N/A   Clear